�������l�o���
Date,Time,MP-1(��Sv/h),MP-2(��Sv/h),MP-3(��Sv/h),MP-4(��Sv/h),MP-5(��Sv/h),MP-6(��Sv/h),MP-7(��Sv/h),MP-8(��Sv/h),����,����(m/s),���J
2018/02/13,00:00,0.883,1.481,0.921,1.730,1.192,0.487,0.867,0.836,��,2.8,��
2018/02/13,00:10,0.885,1.480,0.923,1.726,1.190,0.486,0.867,0.836,���쐼,3.1,��
2018/02/13,00:20,0.884,1.481,0.924,1.725,1.190,0.486,0.865,0.835,�쐼,3.0,��
2018/02/13,00:30,0.886,1.480,0.923,1.728,1.192,0.486,0.865,0.833,��쐼,4.3,��
2018/02/13,00:40,0.884,1.478,0.922,1.728,1.191,0.486,0.863,0.836,��쐼,5.0,��
2018/02/13,00:50,0.884,1.478,0.924,1.728,1.192,0.486,0.866,0.835,�쐼,6.2,��
2018/02/13,01:00,0.883,1.478,0.921,1.730,1.191,0.486,0.867,0.835,��쐼,4.1,��
2018/02/13,01:10,0.880,1.478,0.923,1.731,1.193,0.487,0.865,0.836,���k��,3.3,��
2018/02/13,01:20,0.882,1.482,0.921,1.729,1.193,0.484,0.865,0.835,�k�k��,3.7,��
2018/02/13,01:30,0.880,1.478,0.918,1.728,1.191,0.485,0.865,0.835,�k�k��,3.8,��
2018/02/13,01:40,0.880,1.481,0.920,1.728,1.194,0.484,0.867,0.836,�k�k��,3.3,��
2018/02/13,01:50,0.883,1.481,0.919,1.729,1.192,0.486,0.867,0.835,�k�k��,2.6,��
2018/02/13,02:00,0.883,1.481,0.921,1.729,1.193,0.486,0.863,0.835,�k�k��,2.9,��
2018/02/13,02:10,0.883,1.479,0.920,1.730,1.192,0.486,0.865,0.834,�k�k��,2.6,��
2018/02/13,02:20,0.881,1.478,0.921,1.728,1.191,0.484,0.865,0.836,�k�k��,2.5,��
2018/02/13,02:30,0.882,1.478,0.919,1.728,1.192,0.484,0.867,0.833,�k,3.0,��
2018/02/13,02:40,0.883,1.478,0.920,1.728,1.190,0.484,0.865,0.834,�k,2.5,��
2018/02/13,02:50,0.882,1.480,0.920,1.728,1.191,0.484,0.866,0.834,�k,2.5,��
2018/02/13,03:00,0.884,1.479,0.922,1.730,1.190,0.485,0.865,0.836,�k,3.3,��
2018/02/13,03:10,0.882,1.478,0.921,1.728,1.189,0.484,0.865,0.834,�k�k��,4.6,��
2018/02/13,03:20,0.883,1.477,0.921,1.726,1.188,0.485,0.864,0.833,�k�k��,3.8,��
2018/02/13,03:30,0.882,1.476,0.921,1.727,1.190,0.486,0.866,0.833,�k�k��,6.0,��
2018/02/13,03:40,0.882,1.479,0.921,1.726,1.187,0.485,0.867,0.834,�k�k��,6.0,��
2018/02/13,03:50,0.880,1.479,0.919,1.726,1.189,0.486,0.865,0.834,�k�k��,5.3,��
2018/02/13,04:00,0.882,1.478,0.920,1.728,1.187,0.485,0.866,0.833,�k,5.4,��
2018/02/13,04:10,0.881,1.476,0.920,1.726,1.190,0.486,0.865,0.834,�k,5.6,��
2018/02/13,04:20,0.883,1.479,0.918,1.725,1.191,0.484,0.864,0.835,�k,5.6,��
2018/02/13,04:30,0.882,1.479,0.920,1.724,1.191,0.484,0.866,0.835,�k,6.0,��
2018/02/13,04:40,0.881,1.475,0.919,1.726,1.187,0.485,0.865,0.834,�k,5.2,��
2018/02/13,04:50,0.882,1.478,0.923,1.725,1.190,0.486,0.865,0.834,�k,5.9,��
2018/02/13,05:00,0.882,1.475,0.921,1.727,1.187,0.486,0.864,0.835,�k,5.9,��
2018/02/13,05:10,0.880,1.476,0.921,1.723,1.191,0.485,0.865,0.833,�k,4.5,��
2018/02/13,05:20,0.883,1.479,0.920,1.725,1.189,0.484,0.864,0.833,�k�k��,3.7,��
2018/02/13,05:30,0.880,1.477,0.920,1.728,1.187,0.486,0.865,0.834,�k�k��,2.2,��
2018/02/13,05:40,0.882,1.477,0.920,1.726,1.189,0.486,0.865,0.834,�k,1.5,��
2018/02/13,05:50,0.882,1.476,0.919,1.725,1.187,0.484,0.864,0.834,-,CALM,��
2018/02/13,06:00,0.880,1.472,0.921,1.724,1.188,0.487,0.864,0.834,���쐼,0.6,��
2018/02/13,06:10,0.881,1.477,0.921,1.724,1.187,0.485,0.867,0.836,-,CALM,��
2018/02/13,06:20,0.881,1.478,0.920,1.727,1.186,0.484,0.866,0.833,���k��,0.9,��
2018/02/13,06:30,0.884,1.476,0.921,1.725,1.185,0.485,0.864,0.834,��쐼,1.7,��
2018/02/13,06:40,0.881,1.478,0.918,1.726,1.185,0.482,0.863,0.834,��쐼,2.3,��
2018/02/13,06:50,0.880,1.478,0.918,1.724,1.187,0.485,0.863,0.833,���쐼,2.3,��
2018/02/13,07:00,0.881,1.476,0.918,1.723,1.188,0.485,0.862,0.834,��,1.9,��
2018/02/13,07:10,0.882,1.479,0.922,1.727,1.186,0.484,0.863,0.834,�k��,2.0,��
2018/02/13,07:20,0.881,1.476,0.921,1.724,1.187,0.484,0.865,0.834,�k��,3.4,��
2018/02/13,07:30,0.881,1.478,0.919,1.726,1.189,0.485,0.865,0.833,���k��,4.5,��
2018/02/13,07:40,0.882,1.476,0.919,1.727,1.189,0.486,0.864,0.833,���k��,4.2,��
2018/02/13,07:50,0.881,1.474,0.921,1.726,1.189,0.484,0.865,0.835,���k��,5.1,��
2018/02/13,08:00,0.881,1.476,0.921,1.724,1.189,0.487,0.866,0.836,��,5.7,��
2018/02/13,08:10,0.884,1.478,0.923,1.725,1.187,0.485,0.866,0.834,��,4.5,��
2018/02/13,08:20,0.883,1.475,0.921,1.725,1.190,0.484,0.865,0.834,��,4.3,��
2018/02/13,08:30,0.885,1.476,0.921,1.725,1.190,0.486,0.867,0.837,���쐼,4.0,��
2018/02/13,08:40,0.885,1.479,0.922,1.726,1.191,0.485,0.866,0.835,��,3.6,��
2018/02/13,08:50,0.884,1.479,0.920,1.728,1.192,0.484,0.868,0.835,���k��,3.3,��
2018/02/13,09:00,0.886,1.478,0.923,1.726,1.189,0.485,0.866,0.835,�k��,3.9,��
2018/02/13,09:10,0.886,1.477,0.923,1.729,1.191,0.486,0.868,0.835,�k��,3.9,��
2018/02/13,09:20,0.884,1.479,0.921,1.728,1.190,0.487,0.867,0.836,�k��,3.1,��
2018/02/13,09:30,0.885,1.479,0.921,1.728,1.192,0.487,0.865,0.836,�k��,3.5,��
2018/02/13,09:40,0.884,1.482,0.923,1.726,1.191,0.484,0.864,0.835,�k��,2.0,��
2018/02/13,09:50,0.885,1.477,0.922,1.730,1.193,0.485,0.865,0.836,���k��,3.5,��
2018/02/13,10:00,0.885,1.474,0.920,1.728,1.191,0.486,0.865,0.834,�k��,5.0,��
2018/02/13,10:10,0.885,1.477,0.923,1.730,1.191,0.486,0.865,0.836,�k��,5.1,��
2018/02/13,10:20,0.885,1.478,0.922,1.727,1.189,0.487,0.864,0.837,�k�k��,4.0,��
2018/02/13,10:30,0.886,1.476,0.923,1.729,1.193,0.486,0.864,0.835,�k,5.4,��
2018/02/13,10:40,0.887,1.475,0.924,1.730,1.194,0.486,0.866,0.837,�k��,4.8,��
2018/02/13,10:50,0.888,1.476,0.924,1.731,1.194,0.486,0.867,0.836,�k,5.6,��
2018/02/13,11:00,0.888,1.477,0.925,1.727,1.194,0.487,0.865,0.837,�k�k��,5.3,��
2018/02/13,11:10,0.886,1.476,0.925,1.731,1.193,0.486,0.866,0.836,�k�k��,5.9,��
2018/02/13,11:20,0.886,1.476,0.924,1.730,1.195,0.487,0.864,0.836,�k,6.1,��
2018/02/13,11:30,0.887,1.478,0.925,1.731,1.192,0.486,0.866,0.835,�k,6.0,��
2018/02/13,11:40,0.886,1.479,0.924,1.730,1.195,0.486,0.864,0.836,�k,5.2,��
2018/02/13,11:50,0.887,1.478,0.924,1.731,1.191,0.487,0.864,0.836,�k,6.1,��
2018/02/13,12:00,0.888,1.481,0.924,1.729,1.196,0.488,0.865,0.835,�k�k��,6.5,��
2018/02/13,12:10,0.888,1.484,0.924,1.731,1.195,0.487,0.863,0.837,�k�k��,4.7,��
2018/02/13,12:20,0.887,1.485,0.928,1.730,1.198,0.486,0.864,0.835,�k,2.6,��
2018/02/13,12:30,0.887,1.483,0.924,1.731,1.196,0.487,0.863,0.836,�k�k��,3.9,��
2018/02/13,12:40,0.891,1.483,0.927,1.734,1.198,0.486,0.865,0.837,���k��,5.5,��
2018/02/13,12:50,0.889,1.485,0.924,1.734,1.196,0.487,0.865,0.837,�k��,7.4,��
2018/02/13,13:00,0.889,1.486,0.925,1.731,1.196,0.487,0.868,0.837,���k��,7.2,��
2018/02/13,13:10,0.890,1.485,0.924,1.732,1.193,0.487,0.865,0.837,���k��,7.6,��
2018/02/13,13:20,0.889,1.482,0.923,1.732,1.195,0.488,0.865,0.836,��,7.8,��
2018/02/13,13:30,0.887,1.481,0.924,1.734,1.196,0.489,0.866,0.837,���k��,10.2,��
2018/02/13,13:40,0.890,1.480,0.924,1.733,1.193,0.487,0.866,0.836,���k��,8.4,��
2018/02/13,13:50,0.890,1.481,0.925,1.734,1.195,0.488,0.864,0.837,���k��,6.7,��
2018/02/13,14:00,0.889,1.481,0.926,1.731,1.193,0.487,0.867,0.835,���k��,4.9,��
2018/02/13,14:10,0.888,1.482,0.924,1.730,1.196,0.487,0.868,0.835,�k�k��,4.8,��
2018/02/13,14:20,0.889,1.479,0.924,1.731,1.195,0.489,0.865,0.835,�k�k��,5.5,��
2018/02/13,14:30,0.889,1.479,0.926,1.734,1.198,0.488,0.866,0.835,�k��,4.7,��
2018/02/13,14:40,0.887,1.477,0.924,1.735,1.198,0.487,0.869,0.836,�k��,7.7,��
2018/02/13,14:50,0.888,1.476,0.925,1.733,1.198,0.488,0.868,0.835,�k�k��,8.9,��
2018/02/13,15:00,0.889,1.482,0.925,1.733,1.199,0.487,0.868,0.836,�k��,7.3,��
2018/02/13,15:10,0.889,1.479,0.923,1.734,1.197,0.489,0.868,0.838,�k��,6.9,��
2018/02/13,15:20,0.888,1.483,0.925,1.733,1.198,0.487,0.868,0.839,�k�k��,6.0,��
2018/02/13,15:30,0.887,1.484,0.928,1.733,1.196,0.488,0.868,0.836,�k��,5.9,��
2018/02/13,15:40,0.888,1.484,0.927,1.734,1.197,0.487,0.869,0.836,�k�k��,5.9,��
2018/02/13,15:50,0.888,1.485,0.925,1.732,1.196,0.487,0.869,0.836,�k�k��,6.6,��
2018/02/13,16:00,0.888,1.484,0.924,1.733,1.198,0.487,0.867,0.836,�k�k��,7.3,��
2018/02/13,16:10,0.888,1.481,0.925,1.734,1.196,0.486,0.869,0.836,�k�k��,8.6,��
2018/02/13,16:20,0.886,1.483,0.925,1.735,1.198,0.487,0.867,0.836,�k�k��,8.6,��
2018/02/13,16:30,0.888,1.485,0.923,1.733,1.195,0.485,0.868,0.836,�k�k��,7.8,��
2018/02/13,16:40,0.888,1.486,0.924,1.731,1.194,0.487,0.867,0.835,�k�k��,6.6,��
2018/02/13,16:50,0.886,1.483,0.925,1.734,1.197,0.486,0.868,0.836,�k�k��,6.9,��
2018/02/13,17:00,0.889,1.484,0.922,1.733,1.196,0.485,0.866,0.835,�k�k��,7.1,��
2018/02/13,17:10,0.886,1.482,0.924,1.731,1.196,0.486,0.866,0.835,�k�k��,6.3,��
2018/02/13,17:20,0.884,1.482,0.923,1.731,1.199,0.485,0.867,0.835,�k�k��,7.4,��
2018/02/13,17:30,0.885,1.484,0.922,1.731,1.195,0.483,0.866,0.835,�k�k��,6.6,��
2018/02/13,17:40,0.885,1.483,0.921,1.734,1.194,0.482,0.866,0.835,�k�k��,7.3,��
2018/02/13,17:50,0.883,1.482,0.921,1.730,1.198,0.483,0.867,0.836,�k�k��,7.7,��
2018/02/13,18:00,0.881,1.482,0.920,1.730,1.196,0.484,0.865,0.833,�k�k��,6.8,��
2018/02/13,18:10,0.885,1.481,0.920,1.733,1.196,0.482,0.868,0.836,�k�k��,6.4,��
2018/02/13,18:20,0.885,1.483,0.921,1.728,1.195,0.482,0.866,0.835,�k�k��,6.7,��
2018/02/13,18:30,0.882,1.483,0.920,1.731,1.198,0.482,0.867,0.833,�k��,6.1,��
2018/02/13,18:40,0.884,1.483,0.920,1.729,1.196,0.483,0.863,0.834,�k�k��,6.4,��
2018/02/13,18:50,0.885,1.481,0.920,1.728,1.194,0.485,0.864,0.833,�k��,6.3,��
2018/02/13,19:00,0.882,1.482,0.920,1.731,1.194,0.486,0.866,0.837,�k��,5.5,��
2018/02/13,19:10,0.884,1.480,0.922,1.729,1.197,0.484,0.864,0.833,�k��,4.8,��
2018/02/13,19:20,0.886,1.483,0.926,1.732,1.199,0.485,0.864,0.835,���k��,3.8,��
2018/02/13,19:30,0.885,1.482,0.922,1.729,1.195,0.485,0.865,0.834,���k��,4.6,��
2018/02/13,19:40,0.883,1.483,0.921,1.729,1.195,0.486,0.867,0.835,��,5.4,��
2018/02/13,19:50,0.885,1.481,0.922,1.731,1.194,0.486,0.865,0.833,��,4.3,��
2018/02/13,20:00,0.883,1.482,0.920,1.729,1.196,0.485,0.866,0.834,���k��,3.3,��
2018/02/13,20:10,0.884,1.480,0.922,1.729,1.196,0.486,0.864,0.835,�k��,2.3,��
2018/02/13,20:20,0.883,1.483,0.921,1.730,1.193,0.485,0.864,0.836,��,1.5,��
2018/02/13,20:30,0.882,1.480,0.920,1.727,1.196,0.485,0.863,0.834,��,2.0,��
2018/02/13,20:40,0.882,1.481,0.921,1.729,1.192,0.485,0.865,0.836,��,2.3,��
2018/02/13,20:50,0.883,1.480,0.920,1.727,1.193,0.486,0.863,0.834,���쐼,3.2,��
2018/02/13,21:00,0.881,1.481,0.921,1.730,1.193,0.486,0.863,0.834,���쐼,3.1,��
2018/02/13,21:10,0.881,1.481,0.921,1.728,1.194,0.484,0.865,0.834,���쐼,2.3,��
2018/02/13,21:20,0.882,1.478,0.920,1.728,1.195,0.486,0.866,0.834,�쐼,1.7,��
2018/02/13,21:30,0.883,1.479,0.919,1.725,1.194,0.485,0.863,0.833,��쐼,2.2,��
2018/02/13,21:40,0.884,1.483,0.922,1.727,1.193,0.485,0.866,0.833,�쐼,2.9,��
2018/02/13,21:50,0.884,1.482,0.920,1.729,1.191,0.485,0.865,0.835,��,3.0,��
2018/02/13,22:00,0.884,1.479,0.922,1.728,1.193,0.485,0.866,0.835,��,2.9,��
2018/02/13,22:10,0.884,1.480,0.923,1.725,1.192,0.485,0.864,0.834,���k��,2.0,��
2018/02/13,22:20,0.882,1.479,0.920,1.728,1.193,0.484,0.864,0.833,��,1.7,��
2018/02/13,22:30,0.882,1.479,0.921,1.726,1.193,0.484,0.864,0.833,�쐼,1.4,��
2018/02/13,22:40,0.882,1.480,0.919,1.730,1.191,0.484,0.863,0.834,�쐼,1.5,��
2018/02/13,22:50,0.882,1.479,0.921,1.726,1.191,0.485,0.864,0.833,���쐼,2.0,��
2018/02/13,23:00,0.884,1.483,0.919,1.729,1.193,0.485,0.865,0.833,���쐼,1.1,��
2018/02/13,23:10,0.883,1.479,0.918,1.729,1.193,0.486,0.863,0.834,��쓌,1.1,��
2018/02/13,23:20,0.881,1.481,0.919,1.727,1.193,0.485,0.864,0.834,�쓌,0.9,��
2018/02/13,23:30,0.881,1.479,0.920,1.728,1.191,0.484,0.865,0.835,�쓌,2.6,��
2018/02/13,23:40,0.883,1.479,0.919,1.729,1.192,0.486,0.864,0.833,��쓌,2.0,��
2018/02/13,23:50,0.883,1.480,0.921,1.729,1.193,0.485,0.863,0.833,��,2.8,��
